QPF
0.00 0.00 0.00 0.00 0.00 0.00 0.00 0.00 0.00 0.00 0.00 0.00 0.00 0.00 0.00 0.00 0.00 0.00 0.00 0.00 0.00 0.00 0.00 0.00 0.00 0.00 0.00 0.00 0.00 0.00 0.00 0.00 0.00 0.00 0.01 0.01 0.00 0.00 0.00 0.00 0.00 0.00 0.00 0.00 0.00
0.00 0.00 0.00 0.00 0.00 0.00 0.00 0.00 0.00 0.00 0.00 0.00 0.00 0.00 0.00 0.00 0.00 0.00 0.00 0.00 0.00 0.00 0.00 0.00 0.00 0.00 0.00 0.00 0.00 0.00 0.00 0.00 0.00 0.00 0.00 0.00 0.00 0.00 0.00 0.00 0.00 0.00 0.00 0.00 0.00
0.00 0.00 0.00 0.00 0.00 0.00 0.00 0.00 0.00 0.00 0.00 0.00 0.00 0.00 0.00 0.00 0.00 0.00 0.00 0.00 0.00 0.00 0.00 0.00 0.00 0.00 0.00 0.00 0.00 0.00 0.00 0.00 0.00 0.00 0.00 0.00 0.00 0.00 0.00 0.00 0.00 0.00 0.00 0.00 0.00
0.00 0.00 0.00 0.00 0.00 0.00 0.00 0.00 0.00 0.00 0.00 0.00 0.00 0.00 0.00 0.00 0.00 0.00 0.00 0.00 0.00 0.00 0.00 0.00 0.00 0.00 0.00 0.00 0.00 0.00 0.00 0.00 0.00 0.00 0.00 0.00 0.00 0.00 0.00 0.00 0.00 0.00 0.00 0.00 0.00
0.00 0.00 0.00 0.00 0.00 0.00 0.00 0.00 0.00 0.00 0.00 0.00 0.00 0.00 0.00 0.00 0.00 0.00 0.00 0.00 0.00 0.00 0.00 0.00 0.00 0.00 0.00 0.00 0.00 0.00 0.00 0.00 0.00 0.00 0.00 0.00 0.00 0.00 0.00 0.00 0.00 0.00 0.00 0.00 0.00
0.00 0.00 0.00 0.00 0.00 0.00 0.00 0.00 0.00 0.00 0.00 0.00 0.00 0.00 0.00 0.00 0.00 0.00 0.00 0.00 0.00 0.00 0.00 0.00 0.00 0.00 0.00 0.00 0.00 0.00 0.00 0.00 0.00 0.00 0.00 0.00 0.00 0.00 0.00 0.00 0.00 0.00 0.00 0.00 0.00
0.00 0.00 0.00 0.00 0.00 0.00 0.00 0.00 0.00 0.00 0.00 0.00 0.00 0.00 0.00 0.00 0.00 0.00 0.00 0.00 0.00 0.00 0.00 0.00 0.00 0.00 0.00 0.00 0.00 0.00 0.00 0.00 0.00 0.00 0.00 0.00 0.00 0.00 0.00 0.00 0.00 0.00 0.00 0.00 0.00
0.00 0.00 0.00 0.00 0.00 0.00 0.00 0.00 0.00 0.00 0.00 0.00 0.00 0.00 0.00 0.00 0.00 0.00 0.00 0.00 0.00 0.00 0.00 0.00 0.00 0.00 0.00 0.00 0.00 0.00 0.00 0.00 0.00 0.00 0.00 0.00 0.00 0.00 0.00 0.00 0.00 0.00 0.00 0.00 0.00
0.00 0.00 0.00 0.00 0.00 0.00 0.00 0.00 0.00 0.00 0.00 0.00 0.00 0.00 0.00 0.00 0.00 0.00 0.00 0.00 0.00 0.00 0.00 0.00 0.00 0.00 0.00 0.00 0.00 0.00 0.00 0.00 0.00 0.00 0.00 0.00 0.00 0.00 0.00 0.00 0.00 0.00 0.00 0.00 0.00
0.00 0.00 0.00 0.00 0.00 0.00 0.00 0.00 0.00 0.00 0.00 0.00 0.00 0.00 0.00 0.00 0.00 0.00 0.00 0.00 0.00 0.00 0.00 0.00 0.00 0.00 0.00 0.00 0.00 0.00 0.00 0.00 0.00 0.00 0.00 0.00 0.00 0.00 0.00 0.00 0.00 0.00 0.00 0.00 0.00
0.00 0.00 0.00 0.00 0.00 0.00 0.00 0.00 0.00 0.00 0.00 0.00 0.00 0.00 0.00 0.00 0.00 0.00 0.00 0.00 0.00 0.00 0.00 0.00 0.00 0.00 0.00 0.00 0.00 0.00 0.00 0.00 0.00 0.00 0.00 0.00 0.00 0.00 0.00 0.00 0.00 0.00 0.00 0.00 0.00
0.00 0.00 0.00 0.00 0.00 0.00 0.00 0.00 0.00 0.00 0.00 0.00 0.00 0.00 0.00 0.00 0.00 0.00 0.00 0.00 0.00 0.00 0.00 0.00 0.00 0.00 0.00 0.00 0.00 0.00 0.00 0.00 0.00 0.00 0.00 0.00 0.00 0.00 0.00 0.00 0.00 0.00 0.00 0.00 0.00
0.00 0.00 0.00 0.00 0.00 0.00 0.00 0.00 0.00 0.00 0.00 0.00 0.00 0.00 0.00 0.00 0.00 0.00 0.00 0.00 0.00 0.00 0.00 0.00 0.00 0.00 0.00 0.00 0.00 0.00 0.00 0.00 0.00 0.00 0.00 0.00 0.00 0.00 0.00 0.00 0.00 0.00 0.00 0.00 0.00
0.00 0.00 0.00 0.00 0.00 0.00 0.00 0.00 0.00 0.00 0.00 0.00 0.00 0.00 0.00 0.00 0.00 0.00 0.00 0.00 0.00 0.00 0.00 0.00 0.00 0.00 0.00 0.00 0.00 0.00 0.00 0.00 0.00 0.01 0.00 0.00 0.00 0.00 0.00 0.00 0.00 0.00 0.00 0.00 0.00
0.00 0.00 0.00 0.00 0.00 0.00 0.00 0.00 0.00 0.00 0.00 0.00 0.00 0.00 0.00 0.00 0.00 0.00 0.00 0.00 0.00 0.00 0.00 0.00 0.00 0.00 0.00 0.00 0.00 0.00 0.00 0.00 0.00 0.02 0.00 0.00 0.00 0.00 0.00 0.00 0.00 0.00 0.00 0.00 0.00
0.00 0.00 0.00 0.00 0.00 0.00 0.00 0.00 0.00 0.00 0.00 0.00 0.00 0.00 0.00 0.00 0.00 0.00 0.00 0.00 0.00 0.00 0.00 0.00 0.00 0.00 0.00 0.00 0.00 0.00 0.00 0.00 0.00 0.01 0.00 0.00 0.00 0.00 0.00 0.00 0.00 0.00 0.00 0.00 0.00
0.00 0.00 0.00 0.00 0.00 0.00 0.00 0.00 0.00 0.00 0.00 0.00 0.00 0.00 0.00 0.00 0.00 0.00 0.00 0.00 0.00 0.00 0.00 0.00 0.00 0.00 0.00 0.00 0.00 0.00 0.00 0.00 0.00 0.00 0.00 0.00 0.00 0.00 0.00 0.00 0.00 0.00 0.00 0.00 0.00
0.00 0.00 0.00 0.00 0.00 0.00 0.00 0.00 0.00 0.00 0.00 0.00 0.00 0.00 0.00 0.00 0.00 0.00 0.00 0.00 0.00 0.00 0.00 0.00 0.00 0.00 0.00 0.00 0.00 0.00 0.00 0.00 0.00 0.00 0.00 0.00 0.00 0.00 0.00 0.00 0.00 0.00 0.00 0.00 0.00
0.00 0.00 0.00 0.00 0.00 0.00 0.00 0.00 0.00 0.00 0.00 0.00 0.00 0.00 0.00 0.00 0.00 0.00 0.00 0.00 0.00 0.00 0.00 0.00 0.00 0.00 0.00 0.00 0.00 0.00 0.00 0.00 0.00 0.00 0.00 0.00 0.00 0.00 0.00 0.00 0.00 0.00 0.00 0.00 0.00
0.00 0.00 0.00 0.00 0.00 0.00 0.00 0.00 0.00 0.00 0.00 0.00 0.00 0.00 0.00 0.00 0.00 0.00 0.00 0.00 0.00 0.00 0.00 0.00 0.00 0.00 0.00 0.00 0.00 0.00 0.00 0.00 0.00 0.00 0.00 0.00 0.00 0.00 0.00 0.00 0.00 0.00 0.00 0.00 0.00
0.00 0.00 0.00 0.00 0.00 0.00 0.00 0.00 0.00 0.00 0.00 0.00 0.00 0.00 0.00 0.00 0.00 0.00 0.00 0.00 0.00 0.00 0.00 0.00 0.00 0.00 0.00 0.00 0.00 0.00 0.00 0.00 0.00 0.00 0.00 0.00 0.00 0.00 0.00 0.00 0.00 0.00 0.00 0.00 0.00
0.00 0.00 0.00 0.00 0.00 0.00 0.00 0.00 0.00 0.00 0.00 0.00 0.00 0.00 0.00 0.00 0.00 0.00 0.00 0.00 0.00 0.00 0.00 0.00 0.00 0.00 0.00 0.00 0.00 0.00 0.00 0.00 0.00 0.00 0.00 0.00 0.00 0.00 0.00 0.00 0.00 0.00 0.00 0.00 0.00
0.00 0.00 0.00 0.00 0.00 0.00 0.00 0.00 0.00 0.00 0.00 0.00 0.00 0.00 0.00 0.00 0.00 0.00 0.00 0.00 0.00 0.00 0.00 0.00 0.00 0.00 0.00 0.00 0.00 0.00 0.00 0.00 0.00 0.00 0.00 0.00 0.00 0.00 0.00 0.00 0.00 0.00 0.00 0.00 0.00
0.00 0.00 0.00 0.00 0.00 0.00 0.00 0.00 0.00 0.00 0.00 0.00 0.00 0.00 0.00 0.00 0.00 0.00 0.00 0.00 0.00 0.00 0.00 0.00 0.00 0.00 0.00 0.00 0.00 0.00 0.00 0.00 0.00 0.00 0.00 0.00 0.00 0.00 0.00 0.00 0.00 0.00 0.00 0.00 0.00
0.00 0.00 0.00 0.00 0.00 0.00 0.00 0.00 0.00 0.00 0.00 0.00 0.00 0.00 0.00 0.00 0.00 0.00 0.00 0.00 0.00 0.00 0.00 0.00 0.00 0.00 0.00 0.00 0.00 0.00 0.00 0.00 0.00 0.00 0.00 0.00 0.00 0.00 0.00 0.00 0.00 0.00 0.00 0.00 0.00
0.00 0.00 0.00 0.00 0.00 0.00 0.00 0.00 0.00 0.00 0.00 0.00 0.00 0.00 0.00 0.00 0.00 0.00 0.00 0.00 0.00 0.00 0.00 0.00 0.00 0.00 0.00 0.00 0.00 0.00 0.00 0.00 0.00 0.00 0.00 0.00 0.00 0.00 0.00 0.00 0.00 0.00 0.00 0.00 0.00
0.00 0.00 0.00 0.00 0.00 0.00 0.00 0.00 0.00 0.00 0.00 0.00 0.00 0.00 0.00 0.00 0.00 0.00 0.00 0.00 0.00 0.00 0.00 0.00 0.00 0.00 0.00 0.00 0.00 0.00 0.00 0.00 0.00 0.00 0.00 0.00 0.00 0.00 0.00 0.00 0.00 0.00 0.00 0.00 0.00
MSLP
1015.42 1015.14 1014.89 1014.66 1014.48 1014.24 1014.03 1013.92 1013.73 1013.50 1013.22 1013.02 1012.87 1012.78 1012.69 1012.44 1012.06 1012.07 1010.89 1008.68 1008.73 1008.86 1009.29 1009.95 1010.24 1010.29 1010.65 1011.21 1011.54 1011.96 1012.57 1012.68 1012.15 1011.74 1011.03 1010.67 1010.36 1010.80 1011.15 1011.80 1012.19 1012.48 1012.91 1013.35 1014.11
1015.39 1015.10 1014.80 1014.55 1014.32 1014.07 1013.86 1013.71 1013.51 1013.33 1013.11 1012.96 1012.84 1012.76 1012.59 1012.38 1012.06 1010.85 1008.08 1008.06 1008.39 1008.62 1009.39 1009.84 1010.15 1010.52 1011.06 1011.47 1011.86 1012.42 1013.02 1012.44 1011.72 1011.40 1010.94 1010.91 1010.94 1010.84 1011.33 1012.08 1012.68 1013.04 1013.48 1013.86 1014.46
1015.32 1015.09 1014.85 1014.52 1014.24 1013.95 1013.73 1013.51 1013.32 1013.13 1013.02 1012.91 1012.79 1012.72 1012.50 1012.34 1011.51 1008.44 1007.17 1007.92 1008.33 1008.54 1008.96 1009.25 1009.61 1010.40 1011.10 1011.67 1012.16 1012.45 1012.62 1012.40 1011.69 1011.65 1011.09 1010.98 1011.06 1011.09 1011.26 1011.89 1012.29 1012.85 1013.76 1014.35 1014.91
1015.26 1015.00 1014.75 1014.46 1014.13 1013.88 1013.60 1013.34 1013.09 1012.96 1012.93 1012.84 1012.77 1012.63 1012.43 1012.22 1010.19 1007.48 1007.28 1007.67 1008.41 1008.75 1008.98 1009.16 1009.72 1010.53 1011.36 1011.80 1012.15 1012.47 1012.39 1012.42 1012.03 1011.68 1011.39 1011.37 1011.45 1011.11 1011.14 1011.28 1011.62 1012.96 1013.60 1014.27 1014.97
1015.29 1014.96 1014.68 1014.36 1014.07 1013.75 1013.49 1013.24 1013.04 1012.85 1012.76 1012.72 1012.63 1012.52 1012.31 1011.37 1008.79 1007.15 1006.94 1007.71 1008.47 1008.87 1008.89 1009.15 1009.80 1010.62 1011.33 1011.70 1012.17 1012.50 1012.62 1012.63 1012.31 1012.10 1011.92 1011.50 1011.47 1011.42 1011.41 1011.62 1012.08 1013.10 1013.91 1014.29 1014.77
1015.29 1014.86 1014.55 1014.25 1013.92 1013.57 1013.31 1013.13 1012.96 1012.82 1012.69 1012.63 1012.50 1012.42 1012.01 1010.12 1007.27 1007.30 1007.45 1008.09 1008.37 1008.67 1008.64 1009.09 1009.53 1010.25 1011.24 1011.84 1012.36 1012.42 1012.76 1012.95 1012.71 1012.60 1012.24 1011.99 1011.87 1011.65 1011.44 1011.85 1012.67 1013.37 1013.95 1014.48 1014.81
1015.19 1014.77 1014.40 1014.11 1013.79 1013.42 1013.14 1012.90 1012.73 1012.69 1012.62 1012.48 1012.40 1012.31 1011.39 1008.45 1007.44 1007.62 1007.88 1008.13 1008.32 1008.39 1008.74 1009.10 1009.37 1010.17 1011.33 1012.07 1012.32 1012.51 1012.99 1012.90 1013.02 1012.84 1012.81 1012.74 1012.07 1011.61 1011.64 1011.95 1012.73 1013.45 1013.91 1014.38 1014.64
1015.09 1014.67 1014.28 1013.95 1013.61 1013.22 1012.92 1012.67 1012.45 1012.43 1012.43 1012.43 1012.38 1012.13 1010.26 1007.69 1007.52 1007.79 1008.05 1008.32 1008.40 1008.49 1008.72 1009.08 1009.43 1010.68 1011.54 1012.04 1012.49 1012.78 1013.16 1013.40 1013.26 1013.58 1013.75 1013.78 1012.94 1011.92 1011.91 1012.20 1012.90 1013.45 1013.83 1014.14 1014.42
1014.89 1014.50 1014.13 1013.78 1013.45 1013.08 1012.72 1012.34 1012.05 1012.15 1012.26 1012.35 1012.35 1011.74 1009.21 1007.55 1007.54 1007.24 1007.59 1007.99 1008.42 1008.71 1008.83 1009.13 1009.70 1011.35 1012.02 1012.40 1012.88 1012.98 1013.07 1013.28 1013.57 1013.40 1013.54 1014.05 1012.96 1011.99 1011.83 1012.33 1012.91 1013.38 1013.68 1013.95 1014.31
1014.62 1014.25 1013.91 1013.56 1013.28 1013.01 1012.59 1012.16 1011.95 1012.05 1012.37 1012.34 1011.86 1011.40 1008.69 1007.20 1006.74 1006.89 1007.39 1007.70 1008.31 1008.76 1009.22 1009.65 1010.73 1011.61 1012.42 1012.62 1012.85 1012.66 1012.80 1012.76 1012.86 1013.01 1013.18 1013.24 1012.63 1011.97 1011.75 1012.08 1012.62 1013.01 1013.35 1013.68 1014.01
1014.29 1013.90 1013.55 1013.29 1013.12 1012.98 1012.71 1012.56 1012.52 1012.13 1011.74 1010.14 1009.53 1008.80 1007.44 1006.54 1006.23 1006.66 1007.03 1007.69 1008.30 1008.80 1009.62 1010.10 1011.04 1011.19 1011.57 1011.63 1011.52 1011.76 1012.07 1012.24 1012.10 1012.16 1012.64 1012.49 1012.33 1011.95 1011.76 1011.95 1012.29 1012.61 1012.93 1013.09 1013.25
1013.84 1013.48 1013.09 1012.88 1012.78 1012.79 1012.95 1011.82 1009.69 1009.02 1009.36 1008.60 1008.54 1008.19 1007.33 1006.66 1006.58 1006.64 1006.70 1007.55 1008.35 1009.11 1009.60 1010.41 1010.33 1010.06 1010.54 1010.96 1011.22 1011.30 1011.57 1011.69 1011.81 1012.03 1012.80 1012.54 1011.94 1011.53 1011.37 1011.16 1011.39 1011.82 1012.31 1012.42 1013.01
1013.38 1012.93 1012.54 1012.33 1012.30 1012.52 1011.77 1009.90 1008.75 1008.41 1008.85 1007.81 1007.53 1007.22 1006.75 1006.76 1006.73 1006.41 1006.67 1007.26 1008.10 1008.96 1009.42 1009.89 1009.40 1009.41 1009.80 1010.34 1010.84 1010.81 1010.87 1011.22 1011.51 1012.06 1012.52 1012.61 1012.00 1011.12 1010.60 1010.66 1010.82 1010.92 1011.11 1011.72 1012.22
1012.77 1012.35 1012.02 1011.93 1012.40 1011.33 1010.43 1008.58 1008.53 1008.56 1008.72 1007.47 1006.85 1005.75 1006.12 1006.18 1006.33 1005.72 1006.17 1006.96 1007.91 1008.50 1009.27 1009.40 1008.75 1008.65 1008.83 1009.49 1009.92 1010.59 1010.12 1010.54 1011.30 1012.26 1012.82 1012.76 1012.52 1011.05 1010.35 1010.20 1010.37 1010.58 1010.74 1010.95 1011.49
1012.11 1011.68 1011.49 1011.73 1011.06 1010.56 1008.90 1008.53 1008.42 1008.66 1008.26 1006.59 1005.98 1005.16 1005.51 1005.87 1005.88 1005.79 1005.79 1006.54 1007.53 1008.23 1009.07 1008.63 1008.27 1008.17 1008.13 1008.52 1009.24 1010.22 1009.83 1010.93 1011.97 1012.57 1013.11 1013.14 1013.12 1010.77 1010.48 1010.15 1009.64 1009.77 1009.99 1010.25 1010.50
1011.30 1010.97 1010.92 1011.29 1011.24 1009.01 1008.50 1008.54 1008.65 1008.90 1007.48 1005.98 1005.45 1005.44 1005.83 1005.72 1005.68 1005.96 1006.08 1006.48 1007.07 1008.01 1008.47 1008.41 1007.84 1007.72 1007.26 1007.70 1008.55 1009.57 1010.74 1011.84 1012.80 1013.36 1013.62 1012.82 1012.64 1010.56 1009.96 1008.71 1008.60 1008.86 1008.95 1009.45 1009.90
1010.48 1009.92 1010.45 1009.93 1009.43 1008.57 1008.60 1008.87 1009.36 1008.53 1007.15 1006.42 1005.80 1005.67 1005.83 1005.97 1005.98 1006.10 1006.55 1007.03 1007.64 1008.44 1008.90 1008.08 1007.64 1007.02 1006.95 1007.82 1008.82 1009.54 1011.27 1012.91 1013.74 1014.13 1013.74 1012.71 1012.34 1009.71 1008.24 1007.81 1007.46 1007.69 1007.96 1008.43 1009.24
1009.91 1009.63 1009.75 1009.48 1008.76 1008.70 1008.82 1009.14 1009.42 1008.34 1007.40 1006.44 1006.02 1005.95 1006.06 1006.04 1006.21 1006.51 1007.02 1007.67 1007.95 1008.38 1009.19 1008.71 1007.21 1006.33 1006.22 1006.69 1007.61 1009.30 1010.48 1011.85 1013.00 1013.97 1013.48 1012.78 1011.40 1008.38 1007.38 1006.95 1006.61 1006.71 1007.18 1008.06 1008.80
1009.51 1009.49 1009.60 1008.53 1008.50 1008.95 1009.03 1009.90 1009.29 1008.50 1007.59 1006.91 1006.30 1006.28 1006.30 1006.10 1006.30 1006.75 1007.20 1007.33 1007.39 1007.82 1008.64 1008.58 1007.37 1005.82 1005.47 1005.56 1006.31 1008.82 1009.84 1009.83 1011.95 1013.31 1013.24 1012.28 1010.39 1007.99 1007.07 1006.75 1006.84 1007.00 1007.43 1007.84 1008.33
1010.17 1009.62 1009.23 1008.25 1008.32 1008.45 1009.32 1010.10 1009.50 1008.54 1007.60 1007.05 1006.96 1006.51 1006.58 1006.51 1006.83 1007.13 1006.97 1006.31 1006.54 1006.49 1006.61 1007.86 1007.62 1005.97 1005.42 1005.42 1005.96 1006.69 1007.76 1009.73 1011.34 1012.51 1012.97 1012.19 1010.69 1008.62 1007.41 1007.00 1007.01 1007.30 1007.42 1007.74 1008.21
1010.11 1009.85 1009.02 1008.38 1008.40 1009.34 1010.67 1010.55 1009.47 1008.18 1007.81 1007.35 1007.09 1007.02 1006.94 1006.92 1006.87 1006.98 1006.68 1005.73 1005.59 1006.06 1006.57 1007.56 1007.96 1005.86 1005.79 1005.55 1005.74 1006.82 1007.62 1008.89 1010.23 1011.40 1011.99 1011.66 1010.25 1007.55 1006.94 1006.83 1006.97 1007.06 1007.20 1007.35 1007.84
1011.14 1010.66 1009.01 1008.31 1009.73 1011.58 1011.61 1010.91 1009.86 1008.64 1007.81 1007.53 1007.47 1007.64 1007.40 1007.12 1007.13 1007.07 1006.55 1005.81 1005.35 1005.79 1006.78 1007.03 1007.77 1007.33 1006.10 1005.31 1005.44 1005.96 1006.88 1008.01 1009.76 1011.30 1011.59 1010.76 1008.73 1006.68 1006.56 1006.41 1006.50 1006.65 1006.86 1006.98 1007.57
1012.77 1012.13 1009.62 1009.28 1011.61 1012.79 1012.24 1011.38 1010.46 1009.68 1009.04 1008.45 1008.31 1008.14 1007.93 1007.94 1007.91 1007.41 1006.78 1005.74 1005.74 1005.77 1006.07 1006.90 1007.64 1007.67 1006.53 1005.88 1005.44 1005.69 1006.39 1007.14 1008.22 1009.51 1010.51 1010.19 1008.15 1006.65 1006.29 1006.27 1006.15 1006.46 1006.63 1006.80 1007.41
1013.65 1013.65 1012.69 1012.47 1013.76 1013.78 1013.67 1012.75 1011.45 1010.38 1009.87 1009.46 1009.17 1008.69 1008.78 1008.84 1008.77 1008.42 1007.75 1006.65 1006.32 1006.24 1006.24 1006.22 1007.34 1007.18 1006.71 1005.54 1004.96 1005.39 1005.80 1006.80 1007.13 1008.79 1009.47 1008.81 1007.51 1006.46 1006.43 1005.85 1006.07 1006.20 1006.48 1006.56 1007.23
1014.96 1016.56 1016.42 1015.63 1015.28 1015.10 1014.55 1013.75 1012.74 1011.84 1010.95 1010.36 1010.03 1009.89 1009.83 1009.79 1009.68 1009.35 1008.85 1008.06 1007.00 1006.77 1006.71 1006.90 1007.32 1007.09 1006.03 1005.45 1005.27 1004.67 1004.93 1005.75 1006.57 1006.75 1007.22 1006.87 1006.95 1005.75 1005.55 1005.82 1005.75 1005.45 1005.93 1006.52 1007.09
1016.93 1017.53 1016.98 1016.72 1016.26 1015.68 1015.24 1014.72 1013.82 1013.02 1012.34 1011.44 1011.14 1010.69 1010.25 1010.24 1010.48 1010.48 1009.98 1009.34 1008.45 1007.49 1007.59 1007.75 1007.54 1007.16 1006.57 1005.30 1004.97 1004.92 1004.36 1004.70 1005.35 1005.65 1005.85 1005.83 1005.81 1004.82 1004.98 1005.28 1005.74 1005.80 1005.89 1006.27 1006.56
1018.11 1018.05 1017.79 1017.56 1016.99 1016.47 1016.08 1015.36 1014.47 1013.99 1012.60 1011.98 1011.82 1011.43 1010.86 1010.75 1010.75 1010.27 1010.13 1009.67 1009.16 1009.02 1008.62 1008.54 1008.34 1008.05 1007.03 1006.14 1005.31 1005.04 1004.21 1004.01 1004.28 1004.32 1004.39 1005.10 1004.35 1004.48 1005.01 1004.97 1005.25 1005.87 1006.10 1005.87 1006.39
Thickness
5749 5751 5752 5753 5754 5755 5757 5757 5759 5760 5762 5763 5765 5765 5765 5767 5771 5770 5772 5793 5795 5796 5793 5786 5783 5780 5778 5766 5768 5764 5733 5729 5738 5739 5751 5765 5758 5763 5763 5751 5753 5754 5749 5750 5748
5751 5753 5754 5755 5756 5757 5758 5760 5761 5762 5763 5763 5764 5764 5765 5767 5770 5773 5801 5800 5798 5798 5788 5779 5771 5773 5761 5759 5758 5744 5725 5735 5752 5753 5755 5759 5756 5759 5749 5746 5741 5741 5747 5748 5744
5753 5754 5755 5756 5758 5759 5760 5761 5762 5763 5763 5763 5763 5763 5765 5766 5770 5787 5808 5800 5798 5798 5794 5789 5783 5772 5758 5757 5752 5747 5732 5744 5751 5754 5757 5756 5756 5759 5748 5742 5746 5739 5740 5741 5737
5755 5755 5756 5757 5758 5760 5761 5762 5763 5763 5763 5762 5762 5762 5764 5765 5758 5800 5806 5802 5797 5796 5791 5783 5775 5760 5750 5745 5753 5738 5748 5744 5748 5753 5753 5750 5754 5753 5754 5756 5760 5748 5747 5742 5736
5753 5754 5755 5756 5757 5759 5761 5762 5763 5764 5763 5763 5762 5762 5764 5765 5774 5806 5808 5802 5796 5792 5786 5776 5766 5757 5747 5750 5748 5741 5741 5742 5746 5749 5748 5755 5750 5752 5753 5758 5757 5749 5744 5741 5739
5751 5751 5752 5754 5756 5759 5761 5762 5763 5763 5763 5763 5762 5762 5764 5759 5804 5804 5804 5799 5794 5790 5786 5778 5770 5766 5751 5749 5743 5748 5740 5735 5740 5740 5746 5743 5744 5750 5756 5757 5750 5746 5742 5740 5739
5749 5750 5751 5753 5756 5759 5761 5763 5764 5764 5763 5763 5762 5763 5764 5774 5802 5800 5800 5795 5794 5791 5779 5781 5779 5766 5755 5743 5753 5746 5729 5733 5730 5734 5734 5738 5739 5742 5756 5755 5746 5744 5744 5741 5740
5750 5750 5752 5754 5757 5760 5763 5765 5766 5765 5764 5763 5762 5762 5762 5799 5801 5798 5796 5791 5793 5792 5786 5784 5780 5761 5751 5754 5745 5733 5730 5713 5728 5727 5725 5722 5711 5746 5755 5750 5741 5744 5744 5743 5742
5750 5752 5754 5756 5758 5761 5764 5767 5768 5766 5764 5763 5762 5763 5766 5800 5791 5800 5798 5787 5785 5784 5783 5785 5773 5749 5748 5734 5722 5725 5710 5716 5716 5729 5727 5717 5721 5744 5753 5748 5740 5741 5743 5744 5742
5752 5753 5755 5758 5760 5762 5766 5768 5768 5766 5762 5762 5764 5758 5779 5783 5798 5800 5798 5793 5780 5774 5767 5764 5748 5733 5726 5722 5705 5721 5715 5720 5718 5728 5730 5722 5724 5743 5750 5747 5744 5744 5744 5745 5742
5753 5755 5757 5760 5761 5762 5764 5764 5762 5760 5761 5771 5775 5777 5787 5800 5806 5796 5796 5785 5778 5767 5741 5751 5733 5725 5732 5738 5744 5739 5729 5724 5732 5740 5730 5729 5730 5739 5749 5747 5742 5744 5746 5747 5748
5756 5758 5760 5762 5764 5763 5760 5766 5779 5786 5767 5780 5778 5778 5788 5797 5781 5789 5799 5773 5762 5742 5750 5738 5727 5749 5752 5746 5744 5741 5734 5729 5738 5740 5731 5729 5732 5743 5750 5755 5754 5748 5750 5750 5749
5758 5761 5764 5766 5767 5764 5767 5779 5790 5792 5761 5776 5781 5780 5785 5788 5775 5779 5788 5774 5760 5745 5745 5731 5747 5761 5755 5745 5737 5739 5736 5734 5736 5736 5736 5732 5726 5740 5755 5758 5757 5760 5762 5759 5754
5760 5764 5766 5768 5766 5773 5776 5791 5790 5787 5740 5763 5773 5787 5788 5787 5773 5795 5793 5779 5762 5745 5743 5739 5757 5759 5755 5747 5745 5726 5754 5755 5740 5726 5708 5733 5702 5735 5747 5751 5757 5760 5758 5760 5759
5764 5767 5769 5768 5776 5776 5790 5790 5789 5779 5720 5776 5777 5804 5792 5779 5782 5783 5796 5780 5754 5753 5746 5744 5757 5755 5753 5756 5756 5738 5760 5748 5737 5725 5719 5719 5709 5732 5745 5745 5758 5762 5764 5765 5766
5768 5771 5772 5769 5768 5786 5789 5789 5781 5737 5726 5767 5781 5773 5771 5777 5778 5779 5779 5785 5776 5757 5754 5749 5769 5767 5766 5773 5764 5759 5742 5731 5721 5714 5701 5721 5721 5735 5739 5755 5767 5769 5772 5769 5768
5773 5778 5773 5777 5784 5787 5786 5777 5734 5717 5767 5760 5767 5772 5767 5761 5766 5767 5757 5750 5738 5726 5727 5746 5752 5768 5773 5758 5756 5747 5720 5687 5693 5691 5694 5720 5719 5742 5770 5772 5775 5775 5777 5777 5773
5776 5778 5776 5779 5784 5784 5779 5754 5726 5746 5747 5770 5770 5766 5755 5762 5762 5760 5747 5735 5746 5739 5716 5717 5723 5758 5772 5765 5747 5735 5724 5695 5687 5682 5701 5719 5714 5752 5781 5785 5788 5789 5787 5781 5774
5777 5776 5775 5782 5782 5778 5764 5721 5725 5738 5757 5756 5761 5753 5752 5762 5763 5755 5742 5740 5750 5747 5725 5710 5725 5772 5780 5781 5771 5740 5726 5745 5702 5697 5696 5709 5737 5770 5781 5782 5782 5780 5780 5780 5778
5767 5772 5774 5781 5780 5774 5743 5723 5734 5747 5759 5759 5742 5755 5742 5751 5748 5743 5738 5760 5759 5762 5765 5741 5722 5762 5775 5782 5777 5763 5762 5725 5709 5700 5699 5702 5717 5732 5772 5776 5779 5775 5776 5778 5778
5767 5762 5770 5776 5775 5752 5723 5723 5737 5752 5756 5748 5744 5742 5745 5744 5742 5737 5750 5769 5771 5767 5760 5744 5733 5758 5769 5762 5759 5752 5743 5730 5726 5709 5694 5692 5714 5761 5771 5779 5776 5779 5781 5782 5780
5753 5743 5769 5774 5740 5713 5720 5731 5740 5748 5756 5751 5748 5739 5738 5744 5741 5738 5742 5756 5778 5766 5745 5749 5724 5724 5743 5771 5772 5765 5750 5739 5717 5714 5699 5700 5717 5779 5776 5783 5785 5784 5786 5787 5783
5733 5732 5761 5763 5717 5710 5717 5727 5736 5733 5735 5738 5734 5737 5739 5733 5729 5734 5741 5765 5761 5762 5748 5745 5718 5705 5727 5746 5762 5757 5753 5744 5730 5717 5705 5702 5721 5774 5776 5780 5784 5784 5786 5788 5785
5728 5726 5727 5727 5708 5710 5704 5712 5717 5730 5730 5727 5728 5732 5723 5715 5716 5719 5722 5746 5752 5755 5755 5753 5715 5720 5711 5740 5758 5750 5754 5744 5744 5714 5707 5716 5744 5767 5769 5777 5779 5783 5785 5787 5784
5709 5695 5695 5694 5701 5698 5699 5702 5705 5702 5714 5715 5713 5712 5709 5702 5701 5704 5714 5719 5738 5742 5742 5737 5718 5714 5730 5740 5748 5756 5755 5745 5741 5739 5736 5744 5737 5766 5770 5771 5776 5788 5787 5785 5782
5693 5685 5684 5685 5685 5693 5686 5689 5693 5695 5696 5698 5695 5698 5700 5696 5694 5687 5695 5698 5707 5722 5720 5713 5710 5716 5722 5743 5737 5740 5750 5751 5749 5740 5748 5744 5745 5771 5775 5777 5773 5778 5782 5781 5783
5676 5676 5678 5677 5678 5681 5675 5679 5684 5683 5693 5698 5689 5684 5685 5688 5688 5692 5690 5695 5698 5703 5701 5697 5693 5695 5699 5716 5727 5712 5735 5741 5747 5750 5750 5732 5759 5764 5764 5771 5772 5769 5773 5779 5779